Find Starlink 31377

NORAD ID: 58938 Int'l Des: 2024-027 Owner: SPXS Country: US Constellation: starlink operational
LEOCIRCULAR

Live Position

Loading 3D Globe...

About Starlink 31377

Description loading...

Upcoming Passes

Passes for default location (London). Set your location on the main map for personalized predictions.

Altitude History

Loading altitude history...

Two-Line Element Set

1 58938U 24027H 26139.94308140 .00000717 00000-0 36338-4 0 9990
2 58938 53.1610 338.9343 0001260 95.5461 264.5684 15.30193300128239
Epoch: May 19, 2026 • Age: 9 hours

Current Status

Altitude 480.7 km
Velocity 7.63 km/s
Sub-Earth Point -18.94°S, 176.28°W
Launch Date Feb 10, 2024
Age 2.2 years
Type internet

Technical Details

Classification Payload
Mass 730.00 kg
Dry Mass 700.00 kg
Total Mass 730.00 kg
Length 0.30 m
Diameter 4.10 m
Span 29.00 m
Shape Box + pan
Manufacturer SPXS
Bus Type Starlink V2M
Phase Status In Orbit
Owner/State SPXS/US

Most Searched